Aéroport de Guadeloupe - Pôle Caraïbes, Guadeloupe

21:29 AST le 03 septembre 2015 (GMT -0400)
Le Raizet | | Change Station
CLOSE
Current Station
Aéroport
Location: Le Raizet Airport,
Altitude: 26 ft
Stations météo à proximité

Alt. 26 ft 16.27 °N, 61.53 °W | Updated 29 minutes ago

Mostly Cloudy
Nuageux
81 ° F
Paraît 86 ° F
N
0
Vent Variable Vent de Nord

Aujourd'hui
Haut(e) -- | Bas -- ° F
--% Risque de précip.
Hier
Haut(e) -- | Bas -- ° F
Precip. -- pouce
5:53 AM 6:17 PM
Lune gibbeuse décroissante, 65% visible
Pression 29.98 pouce
Visibilité 6.2 Miles terrestres
Nuages Nuages épars 2200 ft
Nuageux 6600 ft
indice de chaleur 86 ° F
Point de rosée 75 ° F
Humidité 84%
Précipitations 0.00 pouce
Profondeur de la couche neigeuse Non disponible.
UV 0 sur 12
Pollen Non disponible.
Qualité de l'air Non disponible.
Flu Activity Non disponible.
METAR TFFR 040100Z AUTO 00000KT 9999 SCT022/// BKN066/// 27/24 Q1015
Pression 29.98 pouce
Visibilité 6.2 Miles terrestres
Nuages Nuages épars 2200 ft
Nuageux 6600 ft
indice de chaleur 86 ° F
Point de rosée 75 ° F
Humidité 84%
Précipitations 0.00 pouce
Profondeur de la couche neigeuse Non disponible.
UV 0 sur 12
Pollen Non disponible.
Qualité de l'air Non disponible.
Flu Activity Non disponible.
METAR TFFR 040100Z AUTO 00000KT 9999 SCT022/// BKN066/// 27/24 Q1015

10-Day Weather Forecast

×

Almanac

Astronomie

Sep. 03, 2015 Lever Coucher
Temps réel
Crépuscule civil
Crépuscule nautique
Crépuscule astronomique
Lune
Durée de lumière visible
Longueur du jour
Tomorrow will be .
, % of the Moon is Illuminated

Extrêmes aujourd'hui

Country Highs Country Lows

Community

WunderPhotos

Upload Photos

1,852,081 Photos téléchargées !

WunderBlogs® & News

Nearby

Qualité de l'air

  Qualité de l'air Indice de la qualité de l'air Polluant
Not available.

Épaisseur de neige

Station Depth Altitude

Activité sismique

Ville Distance Mag. Time & Date
Minimum magnitude displayed is 2.5.

Températures des eaux côtières

Lieu Température

Stations

Stations météo à proximité

Emplacement de la station Température Refroidissement éolien Point de rosée Humidité Vent Precip. Alt. Mise à jour Type